Time,TemperatureF,DewpointF,PressureIn,WindDirection,WindDirectionDegrees,WindSpeedMPH,WindSpeedGustMPH,Humidity,HourlyPrecipIn,Conditions,Clouds,dailyrainin,SoftwareType,DateUTC
2013-04-14 00:03:00,56.0,44.0,-100.00,ENE,72,0.0,1.0,63,0.00,,,-99.99,,2013-04-14 04:03:00,
2013-04-14 00:13:00,56.0,44.0,-100.00,ENE,72,0.0,1.0,63,0.00,,,-99.99,,2013-04-14 04:13:00,
2013-04-14 00:23:00,56.0,44.0,-100.00,ENE,72,0.0,1.0,63,0.00,,,-99.99,,2013-04-14 04:23:00,
2013-04-14 00:33:00,54.0,44.0,-100.00,WSW,243,1.0,2.0,70,0.00,,,-99.99,,2013-04-14 04:33:00,
2013-04-14 00:43:00,54.0,44.0,-100.00,WSW,243,1.0,2.0,70,0.00,,,-99.99,,2013-04-14 04:43:00,
2013-04-14 00:53:00,54.0,43.0,-100.00,South,169,1.0,1.0,66,0.00,,,-99.99,,2013-04-14 04:53:00,
2013-04-14 01:03:00,54.0,43.0,-100.00,South,169,1.0,1.0,66,0.00,,,-99.99,,2013-04-14 05:03:00,
2013-04-14 01:12:00,53.0,42.0,-100.00,South,175,0.0,1.0,69,0.00,,,-99.99,,2013-04-14 05:12:00,
2013-04-14 01:23:00,53.0,42.0,-100.00,South,175,0.0,1.0,69,0.00,,,-99.99,,2013-04-14 05:23:00,
2013-04-14 01:32:00,52.0,45.0,-100.00,WSW,253,2.0,3.0,78,0.00,,,-99.99,,2013-04-14 05:32:00,
2013-04-14 01:42:00,52.0,45.0,-100.00,West,260,2.0,3.0,75,0.00,,,-99.99,,2013-04-14 05:42:00,
2013-04-14 01:53:00,52.0,45.0,-100.00,West,260,2.0,3.0,75,0.00,,,-99.99,,2013-04-14 05:53:00,
2013-04-14 02:02:00,52.0,45.0,-100.00,West,260,2.0,3.0,75,0.00,,,-99.99,,2013-04-14 06:02:00,
2013-04-14 02:12:00,51.0,45.0,-100.00,West,270,3.0,3.0,78,0.00,,,-99.99,,2013-04-14 06:12:00,
2013-04-14 02:22:00,51.0,43.0,-100.00,WSW,239,1.0,2.0,76,0.00,,,-99.99,,2013-04-14 06:22:00,
2013-04-14 02:32:00,51.0,43.0,-100.00,WSW,239,1.0,2.0,76,0.00,,,-99.99,,2013-04-14 06:32:00,
2013-04-14 02:42:00,50.0,45.0,-100.00,WSW,247,1.0,2.0,83,0.00,,,-99.99,,2013-04-14 06:42:00,
2013-04-14 02:53:00,50.0,45.0,-100.00,WSW,247,1.0,2.0,83,0.00,,,-99.99,,2013-04-14 06:53:00,
2013-04-14 03:02:00,51.0,44.0,-100.00,West,277,1.0,1.0,76,0.00,,,-99.99,,2013-04-14 07:02:00,
2013-04-14 03:12:00,51.0,44.0,-100.00,West,277,1.0,1.0,76,0.00,,,-99.99,,2013-04-14 07:12:00,
2013-04-14 03:22:00,51.0,44.0,-100.00,West,277,1.0,1.0,76,0.00,,,-99.99,,2013-04-14 07:22:00,
2013-04-14 03:33:00,50.0,42.0,-100.00,SW,229,0.0,2.0,74,0.00,,,-99.99,,2013-04-14 07:33:00,
2013-04-14 03:42:00,50.0,42.0,-100.00,SW,229,0.0,2.0,74,0.00,,,-99.99,,2013-04-14 07:42:00,
2013-04-14 03:52:00,50.0,43.0,-100.00,WSW,254,2.0,3.0,77,0.00,,,-99.99,,2013-04-14 07:52:00,
2013-04-14 04:03:00,50.0,43.0,-100.00,WSW,254,2.0,3.0,77,0.00,,,-99.99,,2013-04-14 08:03:00,
2013-04-14 04:13:00,50.0,43.0,-100.00,West,264,2.0,3.0,79,0.00,,,-99.99,,2013-04-14 08:13:00,
2013-04-14 04:23:00,49.0,42.0,-100.00,SSW,199,0.0,1.0,76,0.00,,,-99.99,,2013-04-14 08:23:00,
2013-04-14 04:33:00,49.0,42.0,-100.00,SSW,199,0.0,1.0,76,0.00,,,-99.99,,2013-04-14 08:33:00,
2013-04-14 04:42:00,49.0,42.0,-100.00,SSW,199,0.0,1.0,76,0.00,,,-99.99,,2013-04-14 08:42:00,
2013-04-14 04:52:00,49.0,42.0,-100.00,WSW,253,2.0,2.0,76,0.00,,,-99.99,,2013-04-14 08:52:00,
2013-04-14 05:03:00,49.0,41.0,-100.00,WSW,248,3.0,3.0,75,0.00,,,-99.99,,2013-04-14 09:03:00,
2013-04-14 05:12:00,49.0,41.0,-100.00,WSW,248,3.0,3.0,75,0.00,,,-99.99,,2013-04-14 09:12:00,
2013-04-14 05:22:00,49.0,41.0,-100.00,WSW,248,3.0,3.0,75,0.00,,,-99.99,,2013-04-14 09:22:00,
2013-04-14 05:33:00,48.0,41.0,-100.00,WSW,250,2.0,3.0,78,0.00,,,-99.99,,2013-04-14 09:33:00,
2013-04-14 05:43:00,48.0,41.0,-100.00,WSW,250,2.0,3.0,78,0.00,,,-99.99,,2013-04-14 09:43:00,
2013-04-14 05:54:00,48.0,40.0,-100.00,SW,232,0.0,1.0,74,0.00,,,-99.99,,2013-04-14 09:54:00,
2013-04-14 06:03:00,48.0,41.0,-100.00,WSW,256,2.0,2.0,75,0.00,,,-99.99,,2013-04-14 10:03:00,
2013-04-14 06:13:00,48.0,41.0,-100.00,WSW,256,2.0,2.0,75,0.00,,,-99.99,,2013-04-14 10:13:00,
2013-04-14 06:23:00,48.0,41.0,-100.00,WSW,256,2.0,2.0,75,0.00,,,-99.99,,2013-04-14 10:23:00,
2013-04-14 06:33:00,48.0,42.0,-100.00,West,263,3.0,3.0,80,0.00,,,-99.99,,2013-04-14 10:33:00,
2013-04-14 06:42:00,48.0,39.0,-100.00,West,278,1.0,2.0,72,0.00,,,-99.99,,2013-04-14 10:42:00,
2013-04-14 06:53:00,48.0,39.0,-100.00,West,278,1.0,2.0,72,0.00,,,-99.99,,2013-04-14 10:53:00,
2013-04-14 07:02:00,48.0,39.0,-100.00,West,278,1.0,2.0,72,0.00,,,-99.99,,2013-04-14 11:02:00,
2013-04-14 07:13:00,47.0,40.0,-100.00,WSW,250,3.0,3.0,75,0.00,,,-99.99,,2013-04-14 11:13:00,
2013-04-14 07:22:00,47.0,40.0,-100.00,WSW,250,3.0,3.0,75,0.00,,,-99.99,,2013-04-14 11:22:00,
2013-04-14 07:33:00,47.0,40.0,-100.00,WSW,257,3.0,4.0,77,0.00,,,-99.99,,2013-04-14 11:33:00,
2013-04-14 07:42:00,47.0,40.0,-100.00,WSW,257,3.0,4.0,77,0.00,,,-99.99,,2013-04-14 11:42:00,
2013-04-14 07:53:00,48.0,40.0,-100.00,West,263,2.0,2.0,75,0.00,,,-99.99,,2013-04-14 11:53:00,
2013-04-14 08:02:00,48.0,42.0,-100.00,West,260,3.0,4.0,78,0.00,,,-99.99,,2013-04-14 12:02:00,
2013-04-14 08:12:00,48.0,42.0,-100.00,West,260,3.0,4.0,78,0.00,,,-99.99,,2013-04-14 12:12:00,
2013-04-14 08:22:00,48.0,42.0,-100.00,West,260,3.0,4.0,78,0.00,,,-99.99,,2013-04-14 12:22:00,
2013-04-14 08:32:00,51.0,43.0,-100.00,WSW,257,2.0,3.0,74,0.00,,,-99.99,,2013-04-14 12:32:00,
2013-04-14 08:42:00,51.0,43.0,-100.00,WSW,257,2.0,3.0,74,0.00,,,-99.99,,2013-04-14 12:42:00,
2013-04-14 08:52:00,53.0,38.0,-100.00,NNW,328,1.0,2.0,57,0.00,,,-99.99,,2013-04-14 12:52:00,
2013-04-14 09:02:00,53.0,38.0,-100.00,NNW,328,1.0,2.0,57,0.00,,,-99.99,,2013-04-14 13:02:00,
2013-04-14 09:12:00,58.0,39.0,-100.00,NW,319,0.0,0.0,50,0.00,,,-99.99,,2013-04-14 13:12:00,
2013-04-14 09:23:00,58.0,39.0,-100.00,NW,319,0.0,0.0,50,0.00,,,-99.99,,2013-04-14 13:23:00,
2013-04-14 09:33:00,58.0,42.0,-100.00,NE,54,2.0,2.0,54,0.00,,,-99.99,,2013-04-14 13:33:00,
2013-04-14 09:42:00,58.0,42.0,-100.00,NE,54,2.0,2.0,54,0.00,,,-99.99,,2013-04-14 13:42:00,
2013-04-14 09:52:00,61.0,42.0,-100.00,NE,42,2.0,4.0,51,0.00,,,-99.99,,2013-04-14 13:52:00,
2013-04-14 10:02:00,64.0,38.0,-100.00,NW,325,3.0,6.0,38,0.00,,,-99.99,,2013-04-14 14:02:00,
2013-04-14 10:12:00,64.0,38.0,-100.00,NW,325,3.0,6.0,38,0.00,,,-99.99,,2013-04-14 14:12:00,
2013-04-14 10:22:00,65.0,38.0,-100.00,NE,45,4.0,6.0,36,0.00,,,-99.99,,2013-04-14 14:22:00,
2013-04-14 10:32:00,65.0,38.0,-100.00,NE,45,4.0,6.0,36,0.00,,,-99.99,,2013-04-14 14:32:00,
2013-04-14 10:42:00,65.0,38.0,-100.00,NE,45,4.0,6.0,36,0.00,,,-99.99,,2013-04-14 14:42:00,
2013-04-14 10:53:00,66.0,39.0,-100.00,NE,47,4.0,6.0,37,0.00,,,-99.99,,2013-04-14 14:53:00,
2013-04-14 11:02:00,66.0,39.0,-100.00,NE,47,4.0,6.0,37,0.00,,,-99.99,,2013-04-14 15:02:00,
2013-04-14 11:13:00,68.0,36.0,-100.00,NE,56,3.0,4.0,31,0.00,,,-99.99,,2013-04-14 15:13:00,
2013-04-14 11:22:00,68.0,36.0,-100.00,NE,56,3.0,4.0,31,0.00,,,-99.99,,2013-04-14 15:22:00,
2013-04-14 11:33:00,69.0,39.0,-100.00,East,99,2.0,3.0,32,0.00,,,-99.99,,2013-04-14 15:33:00,
2013-04-14 11:43:00,72.0,41.0,-100.00,ESE,103,2.0,3.0,33,0.00,,,-99.99,,2013-04-14 15:43:00,
2013-04-14 11:53:00,72.0,41.0,-100.00,ESE,103,2.0,3.0,33,0.00,,,-99.99,,2013-04-14 15:53:00,
2013-04-14 12:13:00,72.0,37.0,-100.00,ENE,69,2.0,3.0,28,0.00,,,-99.99,,2013-04-14 16:13:00,
2013-04-14 12:23:00,72.0,37.0,-100.00,ENE,69,2.0,3.0,28,0.00,,,-99.99,,2013-04-14 16:23:00,
2013-04-14 12:33:00,72.0,38.0,-100.00,ESE,106,3.0,3.0,30,0.00,,,-99.99,,2013-04-14 16:33:00,
2013-04-14 12:43:00,72.0,38.0,-100.00,ESE,106,3.0,3.0,30,0.00,,,-99.99,,2013-04-14 16:43:00,
2013-04-14 12:53:00,73.0,42.0,-100.00,ESE,113,2.0,3.0,33,0.00,,,-99.99,,2013-04-14 16:53:00,
2013-04-14 13:02:00,75.0,41.0,-100.00,ESE,113,2.0,3.0,29,0.00,,,-99.99,,2013-04-14 17:02:00,
2013-04-14 13:13:00,75.0,41.0,-100.00,ESE,113,2.0,3.0,29,0.00,,,-99.99,,2013-04-14 17:13:00,
2013-04-14 13:22:00,75.0,41.0,-100.00,ESE,113,2.0,3.0,29,0.00,,,-99.99,,2013-04-14 17:22:00,
2013-04-14 13:33:00,75.0,41.0,-100.00,ESE,113,4.0,5.0,29,0.00,,,-99.99,,2013-04-14 17:33:00,
2013-04-14 13:42:00,77.0,40.0,-100.00,SE,124,3.0,4.0,26,0.00,,,-99.99,,2013-04-14 17:42:00,
2013-04-14 13:53:00,77.0,40.0,-100.00,SE,124,3.0,4.0,26,0.00,,,-99.99,,2013-04-14 17:53:00,
2013-04-14 14:03:00,78.0,49.0,-100.00,ESE,114,2.0,3.0,36,0.00,,,-99.99,,2013-04-14 18:03:00,
2013-04-14 14:12:00,78.0,49.0,-100.00,ESE,114,2.0,3.0,36,0.00,,,-99.99,,2013-04-14 18:12:00,
2013-04-14 14:22:00,78.0,49.0,-100.00,ESE,114,2.0,3.0,36,0.00,,,-99.99,,2013-04-14 18:22:00,
2013-04-14 14:33:00,78.0,46.0,-100.00,ESE,103,2.0,3.0,32,0.00,,,-99.99,,2013-04-14 18:33:00,
2013-04-14 14:43:00,78.0,46.0,-100.00,ESE,103,2.0,3.0,32,0.00,,,-99.99,,2013-04-14 18:43:00,
2013-04-14 14:54:00,78.0,40.0,-100.00,ESE,102,2.0,3.0,26,0.00,,,-99.99,,2013-04-14 18:54:00,
2013-04-14 15:04:00,78.0,40.0,-100.00,ESE,102,2.0,3.0,26,0.00,,,-99.99,,2013-04-14 19:04:00,
2013-04-14 15:12:00,78.0,40.0,-100.00,ESE,102,2.0,3.0,26,0.00,,,-99.99,,2013-04-14 19:12:00,
2013-04-14 15:22:00,79.0,44.0,-100.00,SE,131,3.0,6.0,28,0.00,,,-99.99,,2013-04-14 19:22:00,
2013-04-14 15:33:00,79.0,44.0,-100.00,SE,131,3.0,6.0,28,0.00,,,-99.99,,2013-04-14 19:33:00,
2013-04-14 15:43:00,79.0,44.0,-100.00,SE,131,3.0,6.0,28,0.00,,,-99.99,,2013-04-14 19:43:00,
2013-04-14 15:53:00,80.0,42.0,-100.00,South,184,2.0,4.0,26,0.00,,,-99.99,,2013-04-14 19:53:00,
2013-04-14 16:03:00,80.0,42.0,-100.00,South,184,2.0,4.0,26,0.00,,,-99.99,,2013-04-14 20:03:00,
2013-04-14 16:13:00,81.0,41.0,-100.00,SSE,162,3.0,5.0,25,0.00,,,-99.99,,2013-04-14 20:13:00,
2013-04-14 16:22:00,81.0,41.0,-100.00,SSE,162,3.0,5.0,25,0.00,,,-99.99,,2013-04-14 20:22:00,
2013-04-14 16:33:00,81.0,41.0,-100.00,SSE,162,3.0,5.0,25,0.00,,,-99.99,,2013-04-14 20:33:00,
2013-04-14 16:43:00,82.0,44.0,-100.00,SE,126,2.0,4.0,27,0.00,,,-99.99,,2013-04-14 20:43:00,
2013-04-14 16:53:00,82.0,44.0,-100.00,SE,126,2.0,4.0,27,0.00,,,-99.99,,2013-04-14 20:53:00,
2013-04-14 17:02:00,82.0,44.0,-100.00,SE,126,2.0,4.0,27,0.00,,,-99.99,,2013-04-14 21:02:00,
2013-04-14 17:13:00,81.0,43.0,-100.00,SSE,160,2.0,4.0,26,0.00,,,-99.99,,2013-04-14 21:13:00,
2013-04-14 17:23:00,81.0,43.0,-100.00,SSE,160,2.0,4.0,26,0.00,,,-99.99,,2013-04-14 21:23:00,
2013-04-14 17:33:00,81.0,43.0,-100.00,SSE,160,2.0,4.0,26,0.00,,,-99.99,,2013-04-14 21:33:00,
2013-04-14 17:43:00,80.0,38.0,-100.00,SE,133,2.0,3.0,22,0.00,,,-99.99,,2013-04-14 21:43:00,
2013-04-14 17:54:00,80.0,38.0,-100.00,SE,133,2.0,3.0,22,0.00,,,-99.99,,2013-04-14 21:54:00,
2013-04-14 18:00:00,78.0,33.0,-100.00,SW,233,1.0,2.0,19,0.00,,,-99.99,,2013-04-14 22:00:00,
2013-04-14 18:03:00,80.0,38.0,-100.00,SE,133,2.0,3.0,22,0.00,,,-99.99,,2013-04-14 22:03:00,
2013-04-14 18:13:00,79.0,33.0,-100.00,WSW,254,3.0,5.0,19,0.00,,,-99.99,,2013-04-14 22:13:00,
2013-04-14 18:23:00,78.0,33.0,-100.00,SW,233,1.0,2.0,19,0.00,,,-99.99,,2013-04-14 22:23:00,
2013-04-14 18:33:00,78.0,33.0,-100.00,SW,233,1.0,2.0,19,0.00,,,-99.99,,2013-04-14 22:33:00,
2013-04-14 18:44:00,78.0,33.0,-100.00,SW,233,1.0,2.0,19,0.00,,,-99.99,,2013-04-14 22:44:00,
2013-04-14 18:53:00,78.0,33.0,-100.00,SW,233,1.0,2.0,19,0.00,,,-99.99,,2013-04-14 22:53:00,
2013-04-14 19:13:00,77.0,41.0,-100.00,SW,226,1.0,2.0,27,0.00,,,-99.99,,2013-04-14 23:13:00,
2013-04-14 19:33:00,74.0,40.0,-100.00,SW,220,1.0,3.0,30,0.00,,,-99.99,,2013-04-14 23:33:00,
2013-04-14 19:43:00,74.0,40.0,-100.00,SW,220,1.0,3.0,30,0.00,,,-99.99,,2013-04-14 23:43:00,
2013-04-14 19:53:00,73.0,40.0,-100.00,SSW,205,1.0,3.0,30,0.00,,,-99.99,,2013-04-14 23:53:00,
2013-04-14 20:02:00,73.0,40.0,-100.00,SSW,205,1.0,3.0,30,0.00,,,-99.99,,2013-04-15 00:02:00,
2013-04-14 20:13:00,72.0,39.0,-100.00,SSW,192,2.0,5.0,31,0.00,,,-99.99,,2013-04-15 00:13:00,
2013-04-14 20:23:00,71.0,38.0,-100.00,WSW,248,1.0,4.0,30,0.00,,,-99.99,,2013-04-15 00:23:00,
2013-04-14 20:33:00,71.0,38.0,-100.00,WSW,248,1.0,4.0,30,0.00,,,-99.99,,2013-04-15 00:33:00,
2013-04-14 20:42:00,71.0,40.0,-100.00,WSW,239,2.0,5.0,33,0.00,,,-99.99,,2013-04-15 00:42:00,
2013-04-14 20:53:00,71.0,40.0,-100.00,WSW,239,2.0,5.0,33,0.00,,,-99.99,,2013-04-15 00:53:00,
2013-04-14 21:02:00,70.0,38.0,-100.00,South,181,1.0,4.0,30,0.00,,,-99.99,,2013-04-15 01:02:00,
2013-04-14 21:13:00,70.0,38.0,-100.00,South,181,1.0,4.0,30,0.00,,,-99.99,,2013-04-15 01:13:00,
2013-04-14 21:23:00,70.0,39.0,-100.00,West,278,1.0,2.0,33,0.00,,,-99.99,,2013-04-15 01:23:00,
2013-04-14 21:33:00,70.0,39.0,-100.00,West,278,1.0,2.0,33,0.00,,,-99.99,,2013-04-15 01:33:00,
2013-04-14 21:42:00,70.0,39.0,-100.00,West,278,1.0,2.0,33,0.00,,,-99.99,,2013-04-15 01:42:00,
2013-04-14 21:52:00,69.0,39.0,-100.00,ESE,117,1.0,4.0,33,0.00,,,-99.99,,2013-04-15 01:52:00,
2013-04-14 22:03:00,69.0,39.0,-100.00,ESE,117,1.0,4.0,33,0.00,,,-99.99,,2013-04-15 02:03:00,
2013-04-14 22:12:00,69.0,40.0,-100.00,South,189,1.0,3.0,34,0.00,,,-99.99,,2013-04-15 02:12:00,
2013-04-14 22:22:00,69.0,40.0,-100.00,South,189,1.0,3.0,34,0.00,,,-99.99,,2013-04-15 02:22:00,
2013-04-14 22:32:00,69.0,38.0,-100.00,East,93,1.0,2.0,32,0.00,,,-99.99,,2013-04-15 02:32:00,
2013-04-14 22:42:00,69.0,39.0,-100.00,SW,215,1.0,2.0,33,0.00,,,-99.99,,2013-04-15 02:42:00,
2013-04-14 22:53:00,69.0,39.0,-100.00,SW,215,1.0,2.0,33,0.00,,,-99.99,,2013-04-15 02:53:00,
2013-04-14 23:03:00,68.0,41.0,-100.00,South,171,1.0,3.0,36,0.00,,,-99.99,,2013-04-15 03:03:00,
2013-04-14 23:12:00,68.0,41.0,-100.00,South,171,1.0,3.0,36,0.00,,,-99.99,,2013-04-15 03:12:00,
2013-04-14 23:22:00,68.0,41.0,-100.00,WNW,302,0.0,2.0,37,0.00,,,-99.99,,2013-04-15 03:22:00,
2013-04-14 23:33:00,68.0,41.0,-100.00,WNW,302,0.0,2.0,37,0.00,,,-99.99,,2013-04-15 03:33:00,
2013-04-14 23:43:00,68.0,42.0,-100.00,NNE,13,2.0,4.0,39,0.00,,,-99.99,,2013-04-15 03:43:00,
2013-04-14 23:55:00,68.0,42.0,-100.00,NNE,13,2.0,4.0,39,0.00,,,-99.99,,2013-04-15 03:55:00,